California, MD

10:05 PM EDT on July 29, 2016 (GMT -0400)
Leonardtown

Weather History for K2W6 - June, 2012

Change the Weather History Date:

Saturday, June 30, 2012

  Actual Average (KNHK) Record (KNHK)
Temperature  
Mean Temperature 80 °F -  
Max Temperature 91 °F 83 °F 96 °F (2012)
Min Temperature 68 °F 67 °F 60 °F (1989)
Cooling Degree Days 14    
Growing Degree Days 30 (Base 50)    
Moisture  
Dew Point 66 °F    
Average Humidity 67    
Maximum Humidity 94    
Minimum Humidity 29    
Precipitation  
Precipitation 0.00 in - - ()
Sea Level Pressure  
Sea Level Pressure 29.83 in    
Wind  
Wind Speed 5 mph (WSW)    
Max Wind Speed 10 mph    
Max Gust Speed 21 mph    
Visibility 10 miles    
Events      
Averages and records for this station are not official NWS values.
T = Trace of Precipitation, MM = Missing Value Source: NWS Daily Summary

Daily Weather History Graph

Daily Weather History Graph

Search for Another Location

Airport or City:

Trip Planner

Search our weather history database for the weather conditions in past years. The results will help you decide how hot, cold, wet, or windy it might be!

Date:

Astronomy

Jun. 30, 2012 Rise Set
Actual Time 5:46 AM EDT 8:33 PM EDT
Civil Twilight 5:14 AM EDT 9:05 PM EDT
Nautical Twilight 4:34 AM EDT 9:44 PM EDT
Astronomical Twilight 3:49 AM EDT 10:29 PM EDT
Moon 5:28 PM EDT 2:38 AM EDT
Length of Visible Light 15h 50m
Length of Day
14h 47m
Waxing Gibbous, 87% of the Moon is Illuminated
Jun 30
Waxing Gibbous
Jul 3
Full
Jul 10
Last Quarter
Jul 19
New
Jul 26
First Quarter

Hourly Weather History & Observations

Time (EDT) Temp. Heat Index Dew Point Humidity Pressure Visibility Wind Dir Wind Speed Gust Speed Precip Events Conditions
12:15 AM 69.8 °F - 66.2 °F 88% 29.84 in 10.0 mi WNW 6.9 mph 20.7 mph N/A   Scattered Clouds
12:36 AM 69.8 °F - 66.2 °F 88% 29.80 in 7.0 mi Calm Calm - N/A   Scattered Clouds
12:57 AM 69.8 °F - 68.0 °F 94% 29.77 in 10.0 mi East 4.6 mph - N/A   Scattered Clouds
1:19 AM 69.8 °F - 68.0 °F 94% 29.81 in 10.0 mi SSW 5.8 mph - N/A   Scattered Clouds
1:40 AM 69.8 °F - 68.0 °F 94% 29.80 in 10.0 mi SW 4.6 mph - N/A   Clear
2:01 AM 69.8 °F - 68.0 °F 94% 29.81 in 10.0 mi SW 3.5 mph - N/A   Clear
2:22 AM 69.8 °F - 68.0 °F 94% 29.81 in 10.0 mi Calm Calm - N/A   Clear
2:43 AM 69.8 °F - 68.0 °F 94% 29.78 in 10.0 mi WSW 3.5 mph - N/A   Clear
3:05 AM 69.8 °F - 68.0 °F 94% 29.79 in 10.0 mi West 6.9 mph - N/A   Clear
3:26 AM 69.8 °F - 66.2 °F 88% 29.80 in 10.0 mi West 4.6 mph - N/A   Clear
3:47 AM 69.8 °F - 66.2 °F 88% 29.80 in 10.0 mi WNW 3.5 mph - N/A   Clear
4:08 AM 69.8 °F - 66.2 °F 88% 29.80 in 10.0 mi NW 4.6 mph - N/A   Clear
4:30 AM 69.8 °F - 66.2 °F 88% 29.80 in 10.0 mi Calm Calm - N/A   Clear
4:51 AM 68.0 °F - 66.2 °F 94% 29.80 in 10.0 mi West 3.5 mph - N/A   Clear
5:12 AM 68.0 °F - 66.2 °F 94% 29.80 in 10.0 mi West 3.5 mph - N/A   Clear
5:33 AM 68.0 °F - 66.2 °F 94% 29.81 in 7.0 mi Calm Calm - N/A   Clear
5:54 AM 68.0 °F - 66.2 °F 94% 29.82 in 7.0 mi West 3.5 mph - N/A   Clear
6:16 AM 68.0 °F - 64.4 °F 88% 29.83 in 4.0 mi West 5.8 mph - N/A   Clear
6:37 AM 69.8 °F - 66.2 °F 88% 29.84 in 7.0 mi West 4.6 mph - N/A   Clear
7:19 AM 71.6 °F - 68.0 °F 88% 29.86 in 10.0 mi West 4.6 mph - N/A   Clear
7:40 AM 71.6 °F - 68.0 °F 88% 29.86 in 10.0 mi West 5.8 mph - N/A   Clear
8:02 AM 73.4 °F - 68.0 °F 83% 29.86 in 10.0 mi West 5.8 mph - N/A   Clear
8:23 AM 73.4 °F - 68.0 °F 83% 29.86 in 10.0 mi West 5.8 mph - N/A   Clear
8:44 AM 75.2 °F - 68.0 °F 78% 29.87 in 10.0 mi WNW 3.5 mph - N/A   Clear
9:05 AM 77.0 °F - 68.0 °F 74% 29.87 in 10.0 mi WNW 5.8 mph - N/A   Clear
9:27 AM 78.8 °F - 68.0 °F 69% 29.87 in 10.0 mi West 4.6 mph - N/A   Clear
9:48 AM 80.6 °F 83.2 °F 68.0 °F 65% 29.86 in 10.0 mi West 5.8 mph - N/A   Clear
10:09 AM 80.6 °F 83.2 °F 68.0 °F 65% 29.86 in 10.0 mi West 4.6 mph - N/A   Clear
10:30 AM 82.4 °F 85.4 °F 68.0 °F 62% 29.86 in 10.0 mi West 6.9 mph - N/A   Clear
10:51 AM 82.4 °F 85.4 °F 68.0 °F 62% 29.86 in 10.0 mi West 4.6 mph - N/A   Clear
11:13 AM 84.2 °F 85.6 °F 64.4 °F 51% 29.87 in 10.0 mi WNW 4.6 mph - N/A   Clear
11:34 AM 86.0 °F 87.3 °F 64.4 °F 48% 29.87 in 10.0 mi WSW 3.5 mph - N/A   Clear
11:55 AM 86.0 °F 86.6 °F 62.6 °F 45% 29.86 in 10.0 mi SE 3.5 mph - N/A   Clear
12:16 PM 86.0 °F 89.4 °F 68.0 °F 55% 29.87 in 10.0 mi WSW 6.9 mph - N/A   Clear
12:37 PM 86.0 °F 89.4 °F 68.0 °F 55% 29.86 in 10.0 mi SSW 5.8 mph - N/A   Clear
12:59 PM 87.8 °F 91.4 °F 68.0 °F 52% 29.85 in 10.0 mi WSW 4.6 mph - N/A   Clear
1:20 PM 87.8 °F 91.4 °F 68.0 °F 52% 29.85 in 10.0 mi WSW 6.9 mph - N/A   Clear
1:41 PM 87.8 °F 90.4 °F 66.2 °F 49% 29.85 in 10.0 mi SW 8.1 mph - N/A   Clear
2:02 PM 89.6 °F 89.5 °F 60.8 °F 38% 29.85 in 10.0 mi South 5.8 mph 9.2 mph N/A   Clear
2:23 PM 89.6 °F 87.7 °F 55.4 °F 31% 29.84 in 10.0 mi WSW 9.2 mph - N/A   Clear
2:45 PM 89.6 °F 88.1 °F 57.2 °F 33% 29.83 in 10.0 mi SSW 5.8 mph - N/A   Clear
3:06 PM 91.4 °F 89.4 °F 55.4 °F 29% 29.83 in 10.0 mi WSW 10.4 mph - N/A   Clear
3:27 PM 91.4 °F 90.7 °F 59.0 °F 34% 29.83 in 10.0 mi West 9.2 mph - N/A   Clear
3:48 PM 91.4 °F 91.4 °F 60.8 °F 36% 29.81 in 10.0 mi WSW 9.2 mph - N/A   Clear
4:09 PM 91.4 °F 91.4 °F 60.8 °F 36% 29.81 in 10.0 mi SW 5.8 mph - N/A   Clear
4:31 PM 91.4 °F 91.4 °F 60.8 °F 36% 29.81 in 10.0 mi SW 6.9 mph - N/A   Clear
4:52 PM 91.4 °F 91.4 °F 60.8 °F 36% 29.81 in 10.0 mi West 9.2 mph - N/A   Clear
5:13 PM 91.4 °F 91.4 °F 60.8 °F 36% 29.82 in 10.0 mi West 6.9 mph - N/A   Clear
5:34 PM 91.4 °F 91.4 °F 60.8 °F 36% 29.82 in 10.0 mi WNW 4.6 mph - N/A   Clear
5:55 PM 91.4 °F 91.4 °F 60.8 °F 36% 29.81 in 10.0 mi West 4.6 mph - N/A   Clear
6:17 PM 91.4 °F 91.4 °F 60.8 °F 36% 29.81 in 10.0 mi West 3.5 mph - N/A   Clear
6:38 PM 89.6 °F 90.1 °F 62.6 °F 40% 29.82 in 10.0 mi West 4.6 mph - N/A   Clear
6:59 PM 89.6 °F 90.1 °F 62.6 °F 40% 29.82 in 10.0 mi Calm Calm - N/A   Clear
7:20 PM 86.0 °F 87.3 °F 64.4 °F 48% 29.83 in 10.0 mi Calm Calm - N/A   Clear
7:41 PM 82.4 °F 86.3 °F 69.8 °F 66% 29.83 in 10.0 mi East 3.5 mph - N/A   Clear
8:03 PM 82.4 °F 86.3 °F 69.8 °F 66% 29.83 in 10.0 mi Calm Calm - N/A   Scattered Clouds
8:24 PM 82.4 °F 86.3 °F 69.8 °F 66% 29.83 in 10.0 mi SE 5.8 mph - N/A   Scattered Clouds
8:45 PM 82.4 °F 86.3 °F 69.8 °F 66% 29.83 in 10.0 mi SE 4.6 mph - N/A   Scattered Clouds
9:06 PM 82.4 °F 86.3 °F 69.8 °F 66% 29.84 in 10.0 mi South 3.5 mph - N/A   Scattered Clouds
9:28 PM 80.6 °F 84.6 °F 71.6 °F 74% 29.84 in 10.0 mi South 3.5 mph - N/A   Clear
9:49 PM 80.6 °F 84.6 °F 71.6 °F 74% 29.83 in 10.0 mi SE 3.5 mph - N/A   Clear
10:10 PM 80.6 °F 84.6 °F 71.6 °F 74% 29.84 in 10.0 mi SSE 3.5 mph - N/A   Clear
10:31 PM 80.6 °F 84.6 °F 71.6 °F 74% 29.85 in 10.0 mi SSE 3.5 mph - N/A   Clear
10:52 PM 80.6 °F 84.6 °F 71.6 °F 74% 29.86 in 10.0 mi Calm Calm - N/A   Clear
11:14 PM 80.6 °F 84.6 °F 71.6 °F 74% 29.86 in 10.0 mi SSE 3.5 mph - N/A   Clear
11:35 PM 80.6 °F 84.6 °F 71.6 °F 74% 29.87 in 10.0 mi SSE 3.5 mph - N/A   Scattered Clouds
11:56 PM 78.8 °F - 71.6 °F 78% 29.86 in 10.0 mi Calm Calm - N/A   Scattered Clouds